STARLINK-32544

Last updated on Thu Nov 21 2024 00:02:06 GMT+0000 (Coordinated Universal Time)

1 61917U 24207F 24325.58335648 -.00731480 00000+0 -24168-2 0 9994 2 61917 43.0028 96.5625 0001439 282.3411 123.2249 15.91027364 2445
UTC large
Height (km)
Speed (km/s)
/
Latitude / Longitude
Inclination (degrees)
Orbital Period (minutes)
Azimuth
Elevation
Range (km)
Doppler Factor

Next 0 passes for location: London (51.5072 / 0.1276)

Sorry there are no passes over London.